• In Hungary
  • List of Countries
  • For 7 days
  • Water Temperature
  • Satellite Maps
  • Weather Map
  • News
  • Weather Widgets
  • user-avatar
    Login

    Hourly Weather Agartala

    Today, 18 November, Saturday

    Time Temperature Precipitation Wind Pressure Humidity
    00:00 +23°C° 0 mm 0 mps 756 mmHg 93%
    01:00 +23°C° 0 mm 0 mps 756 mmHg 93%
    02:00 +22°C° 0 mm 0 mps 756 mmHg 93%
    03:00 +22°C° 0 mm 0 mps 756 mmHg 94%
    04:00 +22°C° 0 mm 0 mps 756 mmHg 94%
    05:00 +22°C° 0 mm 0 mps 756 mmHg 95%
    06:00 +22°C° 0 mm 0 mps 756 mmHg 96%
    07:00 +25°C° 0 mm 1 mps 756 mmHg 90%
    08:00 +27°C° 0 mm 1 mps 757 mmHg 85%
    09:00 +28°C° 0 mm 1 mps 757 mmHg 80%
    10:00 +30°C° 0.5 mm 1 mps 757 mmHg 74%
    11:00 +31°C° 0.5 mm 1 mps 756 mmHg 69%
    12:00 +30°C° 0 mm 0 mps 756 mmHg 66%
    13:00 +32°C° 0.2 mm 1 mps 756 mmHg 65%
    14:00 +32°C° 0.2 mm 1 mps 755 mmHg 64%
    15:00 +32°C° 0.2 mm 1 mps 754 mmHg 62%
    16:00 +31°C° 0 mm 1 mps 755 mmHg 67%
    17:00 +29°C° 0 mm 1 mps 755 mmHg 72%
    18:00 +28°C° 0 mm 1 mps 755 mmHg 77%
    19:00 +27°C° 0 mm 1 mps 755 mmHg 79%
    20:00 +27°C° 0 mm 1 mps 756 mmHg 80%
    21:00 +26°C° 0 mm 1 mps 756 mmHg 82%
    22:00 +26°C° 0 mm 1 mps 756 mmHg 84%
    23:00 +26°C° 0 mm 1 mps 756 mmHg 85%

    Tomorrow, 19 November, Sunday

    Time Temperature Precipitation Wind Pressure Humidity
    00:00 +26°C° 0 mm 1 mps 756 mmHg 86%
    01:00 +25°C° 0 mm 1 mps 756 mmHg 87%
    02:00 +25°C° 0 mm 1 mps 756 mmHg 88%
    03:00 +25°C° 0 mm 1 mps 756 mmHg 89%
    04:00 +25°C° 0 mm 1 mps 756 mmHg 90%
    05:00 +24°C° 0 mm 1 mps 756 mmHg 91%
    06:00 +24°C° 0 mm 1 mps 756 mmHg 92%
    07:00 +26°C° 0 mm 1 mps 757 mmHg 85%
    08:00 +27°C° 0 mm 1 mps 757 mmHg 79%
    09:00 +29°C° 0 mm 1 mps 758 mmHg 73%
    10:00 +30°C° 0 mm 1 mps 757 mmHg 68%
    11:00 +31°C° 0 mm 1 mps 757 mmHg 63%
    12:00 +32°C° 0 mm 1 mps 756 mmHg 58%
    13:00 +34°C° 0 mm 2 mps 756 mmHg 57%
    14:00 +34°C° 0 mm 2 mps 755 mmHg 57%
    15:00 +34°C° 0 mm 2 mps 755 mmHg 56%
    16:00 +31°C° 0 mm 2 mps 755 mmHg 61%
    17:00 +29°C° 0 mm 1 mps 755 mmHg 66%
    18:00 +28°C° 0 mm 1 mps 755 mmHg 70%
    19:00 +27°C° 0 mm 2 mps 756 mmHg 71%
    20:00 +27°C° 0 mm 2 mps 756 mmHg 72%
    21:00 +26°C° 0 mm 2 mps 757 mmHg 73%
    22:00 +25°C° 0 mm 2 mps 757 mmHg 74%
    23:00 +25°C° 0 mm 2 mps 757 mmHg 74%

    Day after tomorrow, 20 November, Monday

    Time Temperature Precipitation Wind Pressure Humidity
    00:00 +24°C° 0 mm 2 mps 757 mmHg 75%
    01:00 +24°C° 0 mm 2 mps 756 mmHg 77%
    02:00 +23°C° 0 mm 1 mps 756 mmHg 78%
    03:00 +23°C° 0 mm 1 mps 756 mmHg 80%
    04:00 +23°C° 0 mm 1 mps 756 mmHg 81%
    05:00 +22°C° 0 mm 1 mps 756 mmHg 83%
    06:00 +22°C° 0 mm 1 mps 756 mmHg 85%
    07:00 +24°C° 0 mm 1 mps 757 mmHg 79%
    08:00 +26°C° 0 mm 1 mps 758 mmHg 73%
    09:00 +28°C° 0 mm 1 mps 758 mmHg 67%
    10:00 +29°C° 0 mm 2 mps 758 mmHg 61%
    11:00 +31°C° 0 mm 2 mps 757 mmHg 55%
    12:00 +32°C° 0 mm 2 mps 757 mmHg 48%
    13:00 +32°C° 0 mm 2 mps 756 mmHg 48%
    14:00 +32°C° 0 mm 2 mps 755 mmHg 48%
    15:00 +33°C° 0 mm 3 mps 755 mmHg 48%
    16:00 +30°C° 0 mm 2 mps 755 mmHg 53%
    17:00 +28°C° 0 mm 2 mps 755 mmHg 57%
    18:00 +26°C° 0 mm 2 mps 755 mmHg 62%
    19:00 +25°C° 0 mm 1 mps 756 mmHg 63%
    20:00 +25°C° 0 mm 1 mps 756 mmHg 64%
    21:00 +24°C° 0 mm 1 mps 757 mmHg 66%
    22:00 +24°C° 0 mm 1 mps 757 mmHg 67%
    23:00 +23°C° 0 mm 1 mps 757 mmHg 69%

    21 November, Tuesday

    Time Temperature Precipitation Wind Pressure Humidity
    00:00 +23°C° 0 mm 1 mps 756 mmHg 70%
    01:00 +22°C° 0 mm 1 mps 756 mmHg 72%
    02:00 +22°C° 0 mm 1 mps 756 mmHg 74%
    03:00 +22°C° 0 mm 1 mps 756 mmHg 77%
    04:00 +21°C° 0 mm 1 mps 756 mmHg 78%
    05:00 +21°C° 0 mm 1 mps 756 mmHg 80%
    06:00 +21°C° 0 mm 1 mps 757 mmHg 81%
    07:00 +23°C° 0 mm 1 mps 757 mmHg 76%
    08:00 +24°C° 0 mm 2 mps 758 mmHg 71%
    09:00 +26°C° 0 mm 2 mps 758 mmHg 66%
    10:00 +28°C° 0 mm 2 mps 758 mmHg 60%
    11:00 +29°C° 0 mm 2 mps 757 mmHg 54%
    12:00 +31°C° 0 mm 3 mps 757 mmHg 48%
    13:00 +31°C° 0 mm 3 mps 756 mmHg 47%
    14:00 +31°C° 0 mm 3 mps 755 mmHg 46%
    15:00 +31°C° 0 mm 3 mps 754 mmHg 45%
    16:00 +29°C° 0 mm 2 mps 755 mmHg 50%
    17:00 +27°C° 0 mm 2 mps 755 mmHg 55%
    18:00 +25°C° 0 mm 1 mps 755 mmHg 59%
    19:00 +24°C° 0 mm 1 mps 756 mmHg 60%
    20:00 +23°C° 0 mm 1 mps 756 mmHg 60%
    21:00 +22°C° 0 mm 1 mps 757 mmHg 61%
    22:00 +22°C° 0 mm 1 mps 757 mmHg 60%
    23:00 +21°C° 0 mm 1 mps 757 mmHg 59%

    22 November, Wednesday

    Time Temperature Precipitation Wind Pressure Humidity
    00:00 +19°C° 0 mm 2 mps 757 mmHg 58%
    01:00 +19°C° 0 mm 1 mps 756 mmHg 57%
    02:00 +19°C° 0 mm 1 mps 756 mmHg 57%
    03:00 +18°C° 0 mm 1 mps 756 mmHg 56%
    04:00 +18°C° 0 mm 1 mps 756 mmHg 58%
    05:00 +16°C° 0 mm 1 mps 756 mmHg 59%
    06:00 +16°C° 0 mm 1 mps 756 mmHg 61%
    07:00 +19°C° 0 mm 1 mps 757 mmHg 59%
    08:00 +21°C° 0 mm 1 mps 757 mmHg 57%
    09:00 +24°C° 0 mm 1 mps 758 mmHg 55%
    10:00 +25°C° 0 mm 1 mps 757 mmHg 51%
    11:00 +27°C° 0 mm 1 mps 756 mmHg 47%
    12:00 +28°C° 0 mm 1 mps 756 mmHg 43%
    13:00 +28°C° 0 mm 1 mps 755 mmHg 42%
    14:00 +29°C° 0 mm 1 mps 754 mmHg 42%
    15:00 +29°C° 0 mm 1 mps 754 mmHg 41%
    16:00 +26°C° 0 mm 1 mps 754 mmHg 46%
    17:00 +24°C° 0 mm 1 mps 754 mmHg 51%
    18:00 +22°C° 0 mm 1 mps 755 mmHg 56%
    19:00 +22°C° 0 mm 1 mps 755 mmHg 58%
    20:00 +21°C° 0 mm 1 mps 756 mmHg 60%
    21:00 +20°C° 0 mm 1 mps 756 mmHg 62%
    22:00 +20°C° 0 mm 1 mps 756 mmHg 64%
    23:00 +20°C° 0 mm 1 mps 756 mmHg 66%

    23 November, Thursday

    Time Temperature Precipitation Wind Pressure Humidity
    00:00 +19°C° 0 mm 1 mps 756 mmHg 69%
    01:00 +19°C° 0 mm 1 mps 756 mmHg 71%
    02:00 +19°C° 0 mm 1 mps 756 mmHg 73%
    03:00 +18°C° 0 mm 1 mps 756 mmHg 75%
    04:00 +18°C° 0 mm 1 mps 756 mmHg 77%
    05:00 +18°C° 0 mm 1 mps 756 mmHg 78%
    06:00 +16°C° 0 mm 1 mps 756 mmHg 80%
    07:00 +19°C° 0 mm 1 mps 757 mmHg 73%
    08:00 +22°C° 0 mm 1 mps 757 mmHg 67%
    09:00 +24°C° 0 mm 1 mps 758 mmHg 61%
    10:00 +25°C° 0 mm 2 mps 757 mmHg 55%
    11:00 +27°C° 0 mm 2 mps 757 mmHg 49%
    12:00 +28°C° 0 mm 2 mps 756 mmHg 43%
    13:00 +29°C° 0 mm 2 mps 755 mmHg 43%
    14:00 +29°C° 0 mm 2 mps 755 mmHg 42%
    15:00 +29°C° 0 mm 1 mps 754 mmHg 42%
    16:00 +27°C° 0 mm 1 mps 754 mmHg 48%
    17:00 +25°C° 0 mm 1 mps 755 mmHg 53%
    18:00 +22°C° 0 mm 1 mps 755 mmHg 58%
    19:00 +22°C° 0 mm 1 mps 756 mmHg 59%
    20:00 +21°C° 0 mm 1 mps 756 mmHg 61%
    21:00 +18°C° 0 mm 0 mps 756 mmHg 62%
    22:00 +20°C° 0 mm 1 mps 756 mmHg 64%
    23:00 +20°C° 0 mm 1 mps 756 mmHg 66%
    Show more